Location: ???
(38.1063°N, 23.8617°E)
Time: 11:42:44
(UTC+00:00)

Daily predictions for brighter satellites

Satellite Brightness Start Highest point End
(mag) Time Altitude Azimuth Time Altitude Azimuth Time Altitude Azimuth
SAR-Lupe-1 4.1 17:21:03 10° NNE 17:24:35 56° E 17:28:06 10° S
CZ-4C R/B 2.2 17:20:50 10° SW 17:25:31 78° WNW 17:31:07 10° NNE
CZ-4B R/B 4.4 17:28:37 10° NNW 17:31:24 23° WNW 17:34:08 10° SW
SL-08 RB Rocket 3.7 17:28:33 10° SSE 17:33:12 75° ENE 17:37:51 10° N
ARGOS 3.4 17:30:29 10° S 17:35:52 76° WSW 17:41:16 10° NNW
BREEZE-M DEB (TANK) 4.3 17:35:32 10° NW 17:38:28 47° NE 17:45:22 10° ESE
Orbus 7S? 3.2 17:37:15 10° S 17:39:30 31° ESE 17:42:22 10° ENE
Cosmos 1300 2.7 17:36:56 10° S 17:40:44 90° E 17:44:33 10° N
Cosmos 1626 Rocket 4.3 17:38:00 10° NNW 17:42:20 58° W 17:46:40 10° S
CSL-04 Rocket 3.6 17:37:17 10° SSE 17:42:35 80° ENE 17:47:53 10° N
NOSS 3-4 (A) 3.3 17:37:20 10° SSW 17:43:04 84° ESE 17:49:10 10° NE
NOSS 3-4 (C) 3.3 17:37:23 10° SSW 17:43:10 83° ESE 17:49:17 10° NE
USA 32 4.2 17:39:43 10° S 17:44:56 78° W 17:50:10 10° N
Cosmos 1606 Rocket 3.8 17:41:38 10° SSE 17:45:51 47° E 17:50:03 10° NNE
Cosmos 405 4.3 17:44:31 10° SE 17:47:05 20° E 17:49:40 10° NE
Cosmos 1833 4.1 17:43:24 10° SSW 17:48:58 71° ESE 17:54:36 10° NNE
Cosmos 2360 Rocket 2.5 17:44:08 10° N 17:49:37 48° ENE 17:54:50 11° SE
Okean-O 3.8 17:45:36 10° S 17:49:51 46° W 17:54:07 10° NNW
Lacrosse 4 Rocket 4.0 17:47:24 10° WNW 17:50:36 21° WSW 17:53:44 10° SSW
SME Rocket 3.3 17:47:40 10° NNE 17:51:35 85° WNW 17:56:40 10° SSW
NOSS 3-2 (C) 4.2 17:44:44 10° NNW 17:52:32 78° ENE 18:01:15 10° SE
CZ-2C R/B 3.5 17:48:26 10° N 17:53:29 53° WNW 17:58:33 10° SSW
ATLAS 2AS CENTAUR R/B 3.0 17:48:37 10° SSW 17:56:24 68° ESE 18:04:11 10° NE
Cosmos 1184 Rocket 2.8 17:53:14 10° NNW 17:56:27 77° W 17:59:38 10° S
Cosmos 1726 Rocket 3.7 17:52:57 10° SSE 17:57:12 49° E 18:01:25 10° NNE
SL-27 R/B 4.0 17:54:54 10° SW 17:58:14 40° WNW 18:01:34 10° N
Cosmos 1269 Rocket 4.1 17:55:45 10° SSW 18:01:03 88° WNW 18:06:23 10° NNE
Cosmos 44 4.3 17:57:17 10° SSE 18:01:24 27° ESE 18:05:43 10° NE
Cosmos 1408 3.8 17:59:01 10° NNE 18:01:55 23° ENE 18:03:01 20° ESE
SL-16 R/B 2.9 17:58:14 10° NNW 18:03:45 55° WSW 18:09:15 10° S
Atlas Centaur 2 3.9 17:56:40 10° W 18:04:12 40° SSW 18:10:35 15° SE
Lacrosse 5 rocket 4.2 18:01:49 10° WNW 18:04:31 17° NNW 18:07:19 10° NNE
Ariane Rocket 3.5 18:01:47 14° SE 18:05:43 41° ENE 18:10:27 10° N
Cosmos 2237 4.2 18:01:26 10° NNW 18:07:10 84° ENE 18:12:41 11° SSE
Cosmos 2219 Rocket 3.4 18:02:56 10° N 18:07:41 27° ENE 18:10:32 18° E
Cosmos 1302 Rocket 4.1 18:05:09 10° NNW 18:10:25 63° ENE 18:14:39 16° SSE
OBJECT-B 0.8 18:08:47 19° SSE 18:10:56 59° ENE 18:14:06 10° N
Cosmos 2228 3.3 18:07:11 10° SSW 18:11:31 70° W 18:15:51 10° N
USA 186 1.9 18:09:27 10° S 18:12:43 73° W 18:15:56 10° NNW
CZ-4 R/B 4.4 18:11:46 10° SW 18:14:28 17° W 18:17:11 10° NW
SJ-6B 2.6 18:12:39 15° SSE 18:15:42 75° ENE 18:19:25 10° N
Cosmos 1455 2.6 18:13:32 19° SSE 18:15:46 39° E 18:19:16 10° NNE
Cosmos 2058 Rocket 3.2 18:13:31 10° SSE 18:17:43 49° E 18:21:55 10° NNE
Cosmos 1092 Rocket 4.2 18:12:37 10° N 18:18:43 52° E 18:23:21 17° SSE
Helios 1A Rocket 4.5 18:20:30 10° SSW 18:24:12 35° W 18:27:58 10° NNW
Resurs 01 Rocket 2.5 18:26:04 28° E 18:27:08 31° ENE 18:31:04 10° N
Cosmos 909 Rocket 4.2 18:22:57 10° S 18:29:14 50° ESE 18:35:16 10° NE
In-Cosmos 22 Rocket 4.3 18:23:45 10° N 18:29:37 89° ENE 18:35:05 12° S
Cosmos 1953 Rocket 3.4 18:26:01 10° N 18:30:24 83° E 18:33:14 21° S
Cosmos 2237 Rocket 4.1 18:28:15 10° NNE 18:30:49 13° NE 18:32:20 12° ENE
Cosmos 1818 3.8 18:26:31 10° S 18:31:40 46° ESE 18:36:52 10° NE
Cosmos 1992 Rocket 4.5 18:30:19 10° N 18:35:16 42° ENE 18:36:53 33° ESE
Cosmos 614 Rocket 4.5 18:37:41 34° ESE 18:38:18 35° E 18:42:57 10° NE
CENTAUR R/B 3.9 18:34:04 10° NW 18:42:13 53° WSW 18:50:31 11° S
Resurs 1-3 3.5 18:41:31 33° SSE 18:43:27 83° ENE 18:47:51 10° N
CZ-2C R/B 4.3 18:39:21 10° NNE 18:42:58 35° E 18:42:58 35° E
USA 215 4.1 18:40:14 22° E 18:43:51 40° NNE 18:49:50 10° NW
ATLAS 3B R/B 3.5 18:40:10 10° NNW 18:46:44 40° NE 18:49:40 28° E
RESURS DK-1 2.2 18:42:53 10° SSW 18:46:59 77° ESE 18:51:07 10° NNE
COSMOS 2487 3.6 18:44:10 10° SW 18:47:24 42° WNW 18:50:40 10° N
Meteor 2-10 Rocket 4.3 18:42:58 10° SSW 18:47:59 54° WNW 18:53:14 10° N
Cosmos 2333 Rocket 2.2 18:43:59 10° NNW 18:49:45 68° ENE 18:51:48 40° SE
Cosmos 2058 2.9 18:46:13 10° N 18:50:21 57° E 18:50:36 56° E
Cosmos 2322 Rocket 4.0 18:46:09 10° NW 18:50:54 28° WSW 18:55:38 10° SSW
Cosmos 2297 Rocket 4.0 18:53:53 16° ENE 18:53:53 16° ENE 18:55:20 10° NE
Cosmos 2279 Rocket 4.1 18:48:26 31° SSE 18:51:08 52° E 18:57:07 10° NNE
Cosmos 1428 Rocket 4.4 18:46:07 10° N 18:52:23 76° E 18:55:41 30° SSE
Cosmos 2344 3.5 18:45:44 10° SSW 18:53:27 88° WNW 19:01:06 10° NNE
Cosmos 1892 3.6 18:51:08 10° NNW 18:54:44 45° W 18:56:33 25° SSW
Landsat 7 4.1 18:54:28 45° E 18:54:53 46° ENE 18:59:26 10° N
Meteor 2-1 Rocket 4.2 18:51:12 14° S 18:56:15 81° E 19:02:09 10° N
Cosmos 2322 3.6 18:57:06 10° NNW 19:02:46 89° WSW 19:04:34 46° SSE
IRIDIUM 106 4.3 19:03:49 55° ESE 19:04:18 57° E 19:09:25 10° N
Cosmos 2026 Rocket 3.9 18:58:44 10° N 19:04:50 86° W 19:07:51 32° S
FALCON 9 DEB 3.8 19:01:36 10° WSW 19:04:35 54° WNW 19:04:35 54° WNW
Cosmos 1634 Rocket 4.4 19:07:02 10° SSW 19:13:15 63° W 19:19:28 10° N
Cosmos 1825 2.5 19:09:34 10° NNW 19:13:04 62° WNW 19:13:04 62° WNW
IGS 5A 3.5 19:14:24 75° N 19:14:24 75° N 19:18:13 10° N
Cosmos 2142 Rocket 4.5 19:11:44 25° S 19:15:39 87° W 19:22:03 10° N
Spot 2 Rocket 4.2 19:16:14 40° ENE 19:16:14 40° ENE 19:20:31 10° N
SPOT 1/Viking Rocket 3.6 19:20:11 59° ENE 19:20:11 59° ENE 19:25:15 10° N
ATLAS 5 CENTAUR R/B 4.1 19:18:48 10° NW 19:19:04 13° NW 19:19:04 13° NW
ARIANE 5 R/B 3.8 19:23:11 33° NNE 19:23:11 33° NNE 19:26:02 10° N
Haruka 4.2 19:09:50 10° W 19:23:06 42° SSW 19:23:58 40° S
SL-16 R/B 4.3 19:20:54 10° NNE 19:23:15 12° NE 19:23:24 12° NE
Cosmos 2292 Rocket 4.2 19:17:36 10° N 19:24:36 74° E 19:25:08 69° SE
SPOT 3 Rocket 3.7 19:24:58 55° SSW 19:25:55 68° WSW 19:31:07 10° NNW
Cosmos 2251 Rocket 4.2 19:21:12 10° SSW 19:26:27 56° WNW 19:31:43 10° N
COSMOS 2428 2.6 19:24:04 10° NNW 19:29:49 80° WSW 19:30:26 70° S
Cosmos 2360 Rocket 4.2 19:29:01 10° NW 19:33:11 21° W 19:36:38 13° SW
Cosmos 2180 Rocket 4.3 19:32:32 60° S 19:33:48 90° ENE 19:39:59 10° N
Cosmos 1655 Rocket 4.0 19:32:50 10° N 19:38:52 63° ENE 19:38:52 63° ENE
ATLAS 3B CENTAUR R/B 4.4 19:19:33 10° WSW 19:40:20 55° S 19:44:34 45° SE
SPOT 5 4.3 19:42:59 27° NNE 19:42:59 27° NNE 19:45:23 10° N
BREEZE-M (TANK) 3.6 19:28:54 10° WNW 19:43:46 76° NNE 19:44:05 74° ENE
Cosmos 2219 Rocket 3.0 19:46:26 10° NW 19:51:45 42° WSW 19:52:17 41° WSW
Atlas Centaur 2 4.5 19:47:16 10° WSW 19:53:06 21° SSW 19:53:10 21° SSW
Terra 3.5 20:02:40 27° NNE 20:02:40 27° NNE 20:04:58 10° N
Resurs 01 Rocket 3.7 20:03:37 22° W 20:03:37 22° W 20:07:03 10° NW
Cosmos 2237 Rocket 2.9 20:10:03 10° NNW 20:14:10 50° NNW 20:14:10 50° NNW
USA 215 3.6 20:27:34 57° W 20:27:34 57° W 20:33:06 10° NW
Cosmos 2227 Rocket 3.4 20:29:01 36° N 20:29:01 36° N 20:32:22 10° NNE
Cosmos 2333 Rocket 4.5 20:30:12 10° WNW 20:33:19 15° W 20:33:50 15° WSW
Cosmos 2219 4.4 20:35:30 39° NNW 20:35:30 39° NNW 20:39:26 10° NNE
Cosmos 2297 Rocket 3.3 20:35:35 40° NW 20:35:35 40° NW 20:40:01 10° N
ATLAS 3B R/B 3.5 20:30:49 10° NW 20:36:56 43° WSW 20:36:56 43° WSW
SL-16 R/B 3.9 21:02:33 10° NNW 21:05:17 30° NNW 21:05:17 30° NNW
Cosmos 2263 Rocket 4.5 22:16:26 19° N 22:16:26 19° N 22:18:04 10° NNE
SL-16 R/B 4.1 23:14:47 29° NE 23:14:47 29° NE 23:19:19 10° N
Resurs 1-4 Rocket 4.4 23:16:34 10° NNE 23:18:15 19° NE 23:18:15 19° NE
CZ-2D R/B 4.3 23:17:14 10° NNE 23:19:21 21° NE 23:19:21 21° NE
